Regional Weather Roundup
Issued by NWS Albany, NY

Home | Current Version | Previous Version | Text Only | Print | Product List | Glossary On
Versions: 1 2 3 4 5 6 7 8 9 10 11 12 13 14 15 16 17 18 19 20 21 22 23 24 25 26 27 28 29 30 31 32 33 34 35 36 37 38 39 40 41 42 43 44 45 46 47 48 49 50
000
ASUS41 KALY 241310
RWRALY

NEW YORK STATE HOURLY WEATHER ROUNDUP
NATIONAL WEATHER SERVICE ALBANY NY
900 AM EDT MON APR 24 2017

NOTE: "FAIR" INDICATES FEW OR NO CLOUDS BELOW 12,000 FEET WITH NO
SIGNIFICANT WEATHER AND/OR NO OBSTRUCTIONS TO VISIBILITY.

NYZ032-033-038>043-046>054-057>066-NYZ062>081-082-084-241400-
EAST


CITY           SKY/WX    TMP DP  RH WIND       PRES   REMARKS
ALBANY         PTSUNNY   53  41  63 NW3       30.18R
GLENS FALLS    MOSUNNY   50  39  66 NE6       30.20R
POUGHKEEPSIE   CLOUDY    52  43  71 CALM      30.16R
NEWBURGH       PTSUNNY   52  46  82 VRB5      30.17R
MONTGOMERY     CLOUDY    52  46  80 CALM      30.15S
WHITE PLAINS   CLOUDY    49  44  83 VRB3      30.17R
ISLIP          CLOUDY    50  45  83 E5        30.18R
NEW YORK CITY  CLOUDY    53  44  71 VRB5      30.17S
CENTRAL PARK   CLOUDY    53  44  71 E6        30.19S
$$

NYZ005>009-017-018-044>046-055-056-241400-
CENTRAL


CITY           SKY/WX    TMP DP  RH WIND       PRES   REMARKS
FULTON         MOSUNNY   47  37  68 NW6       30.18R
SYRACUSE       PTSUNNY   48  41  76 CALM      30.17R
ROME           SUNNY     49  38  65 CALM      30.18R
ELMIRA         SUNNY     47  39  74 CALM      30.14S
BINGHAMTON     MOSUNNY   50  36  58 SE6       30.13R
MONTICELLO     CLOUDY    50  41  71 CALM      30.17R
$$

NYZ026>034-041>043-087-241400-
NORTH


CITY           SKY/WX    TMP DP  RH WIND       PRES   REMARKS
WATERTOWN      CLOUDY    42  34  73 NE15G23   30.23R
FORT DRUM      NOT AVBL
OGDENSBURG     FAIR      40  29  65 N7        30.28R WCI  35
MASSENA        CLOUDY    39  28  64 NE8       30.29S WCI  33
SARANAC LAKE   CLOUDY    39  34  82 N5        30.18R
PLATTSBURGH    CLOUDY    38  26  62 N15       30.28R WCI  29
$$

NYZ001>004-010>016-019>021-085-241400-
WEST


CITY           SKY/WX    TMP DP  RH WIND       PRES   REMARKS
NIAGARA FALLS  SUNNY     47  36  65 E16       30.15S
BUFFALO        MOSUNNY   47  37  68 NE12      30.15R
DUNKIRK        SUNNY     51  33  50 NE8       30.12S
JAMESTOWN      SUNNY     54  28  37 NE7       30.10S
WELLSVILLE     SUNNY     53  36  52 CALM      30.13R
ROCHESTER      CLOUDY    44  36  73 NE12      30.20R
PENN YAN       SUNNY     47  37  68 CALM      30.17R
$$

             KEY
       WCI = WIND CHILL INDEX
       VSB = VISIBILITY
       HX  = HEAT INDEX
$$



USA.gov is the U.S. government's official web portal to all federal, state and local government web resources and services.